| time (UTC) | temp F | wind direction | speed MPH | gust MPH | rain 1hr in | rain 24hr in | rain mn in | humidity % | barometer mb |
| 20260504045231 | 55 | 0 | 1.0 | 15.0 | 0.00 | 0.01 | 0.00 | 52 | 1007.6 |
| 20260504044732 | 55 | 229 | 2.0 | 15.0 | 0.00 | 0.01 | 0.00 | 51 | 1007.7 |
| 20260504044232 | 55 | 226 | 2.0 | 15.0 | 0.00 | 0.01 | 0.00 | 51 | 1007.7 |
| 20260504043735 | 55 | 244 | 3.0 | 15.0 | 0.00 | 0.01 | 0.00 | 51 | 1007.7 |
| 20260504043231 | 55 | 222 | 3.0 | 15.0 | 0.00 | 0.01 | 0.00 | 51 | 1007.6 |
| 20260504042731 | 55 | 229 | 2.0 | 15.0 | 0.00 | 0.01 | 0.00 | 51 | 1007.7 |
| 20260504042438 | 55 | 0 | 2.0 | 16.0 | 0.00 | 0.01 | 0.00 | 51 | 1007.7 |
| 20260504041732 | 55 | 219 | 2.0 | 16.0 | 0.00 | 0.01 | 0.00 | 51 | 1007.7 |
| 20260504041232 | 55 | 0 | 2.0 | 15.0 | 0.00 | 0.01 | 0.00 | 50 | 1007.7 |
| 20260504040731 | 56 | 0 | 2.0 | 11.0 | 0.00 | 0.01 | 0.00 | 51 | 1007.5 |
| 20260504040232 | 56 | 0 | 2.0 | 12.0 | 0.00 | 0.01 | 0.00 | 51 | 1007.6 |
| 20260504035731 | 56 | 0 | 2.0 | 14.0 | 0.00 | 0.01 | 0.01 | 50 | 1007.6 |
| 20260504035231 | 55 | 256 | 1.0 | 14.0 | 0.00 | 0.01 | 0.01 | 51 | 1007.5 |
| 20260504034731 | 55 | 227 | 1.0 | 14.0 | 0.00 | 0.01 | 0.01 | 51 | 1007.6 |
| 20260504034232 | 55 | 242 | 1.0 | 14.0 | 0.00 | 0.01 | 0.01 | 51 | 1007.5 |
| 20260504033730 | 55 | 221 | 1.0 | 12.0 | 0.00 | 0.01 | 0.01 | 52 | 1007.7 |
| 20260504033231 | 55 | 220 | 1.0 | 12.0 | 0.00 | 0.01 | 0.01 | 52 | 1007.7 |
| 20260504032729 | 55 | 242 | 0.0 | 7.0 | 0.00 | 0.01 | 0.01 | 52 | 1007.7 |
| 20260504032230 | 55 | 224 | 0.0 | 7.0 | 0.00 | 0.01 | 0.01 | 53 | 1007.6 |
| 20260504031729 | 55 | 224 | 0.0 | 3.0 | 0.00 | 0.01 | 0.01 | 53 | 1007.7 |
| 20260504031229 | 55 | 214 | 0.0 | 5.0 | 0.00 | 0.01 | 0.01 | 53 | 1007.7 |
| 20260504030728 | 55 | 231 | 1.0 | 10.0 | 0.00 | 0.01 | 0.01 | 54 | 1007.7 |
| 20260504030226 | 55 | 219 | 1.0 | 10.0 | 0.00 | 0.01 | 0.01 | 53 | 1007.7 |
| 20260504025720 | 55 | 223 | 1.0 | 9.0 | 0.00 | 0.01 | 0.01 | 53 | 1007.7 |
| 20260504025215 | 54 | 220 | 1.0 | 9.0 | 0.00 | 0.01 | 0.01 | 54 | 1007.7 |
| 20260504024710 | 55 | 242 | 1.0 | 9.0 | 0.00 | 0.01 | 0.01 | 54 | 1007.8 |
| 20260504024211 | 55 | 240 | 1.0 | 9.0 | 0.00 | 0.01 | 0.01 | 54 | 1007.8 |
| 20260504023710 | 55 | 231 | 1.0 | 10.0 | 0.00 | 0.01 | 0.01 | 54 | 1007.9 |
| 20260504023210 | 55 | 247 | 1.0 | 10.0 | 0.00 | 0.01 | 0.01 | 56 | 1007.9 |
| 20260504022708 | 54 | 210 | 0.0 | 5.0 | 0.00 | 0.01 | 0.01 | 55 | 1007.9 |
| 20260504022207 | 54 | 225 | 0.0 | 6.0 | 0.00 | 0.01 | 0.01 | 57 | 1007.9 |
| 20260504021706 | 54 | 221 | 0.0 | 6.0 | 0.00 | 0.01 | 0.01 | 58 | 1008.0 |
| 20260504021206 | 53 | 220 | 0.0 | 6.0 | 0.00 | 0.01 | 0.01 | 61 | 1008.0 |
| 20260504020706 | 53 | 209 | 0.0 | 5.0 | 0.00 | 0.01 | 0.01 | 63 | 1008.0 |
| 20260504020206 | 52 | 204 | 0.0 | 0.0 | 0.00 | 0.01 | 0.01 | 68 | 1008.0 |
| 20260504015703 | 52 | 200 | 0.0 | 0.0 | 0.00 | 0.01 | 0.01 | 69 | 1008.0 |
| 20260504015202 | 51 | 200 | 0.0 | 0.0 | 0.00 | 0.01 | 0.01 | 71 | 1008.1 |
| 20260504014702 | 51 | 199 | 0.0 | 0.0 | 0.00 | 0.01 | 0.01 | 72 | 1008.0 |
| 20260504014159 | 51 | 199 | 0.0 | 0.0 | 0.00 | 0.01 | 0.01 | 74 | 1008.1 |
| 20260504013657 | 51 | 199 | 0.0 | 0.0 | 0.00 | 0.01 | 0.01 | 75 | 1008.1 |
| 20260504013155 | 50 | 196 | 0.0 | 0.0 | 0.00 | 0.01 | 0.01 | 78 | 1008.1 |
| 20260504012654 | 50 | 195 | 0.0 | 0.0 | 0.00 | 0.01 | 0.01 | 80 | 1008.1 |
| 20260504012154 | 50 | 194 | 0.0 | 0.0 | 0.00 | 0.01 | 0.01 | 82 | 1008.1 |
| 20260504011653 | 49 | 167 | 0.0 | 0.0 | 0.00 | 0.01 | 0.01 | 84 | 1008.1 |
| 20260504011154 | 49 | 225 | 0.0 | 0.0 | 0.00 | 0.01 | 0.01 | 85 | 1008.2 |
| 20260504010647 | 49 | 228 | 0.0 | 0.0 | 0.00 | 0.01 | 0.01 | 85 | 1008.2 |
| 20260504010141 | 49 | 238 | 0.0 | 0.0 | 0.00 | 0.01 | 0.01 | 85 | 1008.4 |
| 20260504005635 | 49 | 238 | 0.0 | 0.0 | 0.01 | 0.01 | 0.01 | 85 | 1008.5 |
| 20260504005132 | 49 | 237 | 0.0 | 0.0 | 0.01 | 0.01 | 0.01 | 85 | 1008.7 |
| 20260504004631 | 49 | 238 | 0.0 | 0.0 | 0.01 | 0.01 | 0.01 | 85 | 1008.7 |
| 20260504004132 | 49 | 238 | 0.0 | 0.0 | 0.01 | 0.01 | 0.01 | 84 | 1008.7 |
| 20260504003630 | 50 | 238 | 0.0 | 0.0 | 0.01 | 0.01 | 0.01 | 84 | 1008.7 |
| 20260504003130 | 50 | 238 | 0.0 | 0.0 | 0.01 | 0.01 | 0.01 | 83 | 1008.7 |
| 20260504002630 | 50 | 0 | 0.0 | 0.0 | 0.01 | 0.01 | 0.01 | 83 | 1008.7 |
| 20260504002129 | 50 | 0 | 0.0 | 0.0 | 0.01 | 0.01 | 0.01 | 82 | 1008.7 |
| 20260504001631 | 50 | 0 | 0.0 | 0.0 | 0.01 | 0.01 | 0.01 | 81 | 1008.9 |
| 20260504001130 | 50 | 241 | 0.0 | 1.0 | 0.01 | 0.01 | 0.01 | 80 | 1009.0 |
| 20260504000633 | 50 | 241 | 0.0 | 1.0 | 0.01 | 0.01 | 0.01 | 79 | 1009.0 |
| 20260504000130 | 51 | 241 | 0.0 | 7.0 | 0.01 | 0.01 | 0.01 | 78 | 1009.0 |
| 20260503235631 | 51 | 240 | 0.0 | 7.0 | 0.00 | 0.00 | 0.00 | 76 | 1008.8 |
| 20260503235130 | 51 | 0 | 0.0 | 0.0 | 0.00 | 0.00 | 0.00 | 75 | 1008.8 |
| 20260503234631 | 51 | 237 | 0.0 | 7.0 | 0.00 | 0.00 | 0.00 | 74 | 1008.7 |
| 20260503234130 | 51 | 0 | 0.0 | 7.0 | 0.00 | 0.00 | 0.00 | 73 | 1008.6 |
| 20260503233631 | 51 | 0 | 1.0 | 11.0 | 0.00 | 0.00 | 0.00 | 72 | 1008.7 |
| 20260503233130 | 51 | 0 | 2.0 | 12.0 | 0.00 | 0.00 | 0.00 | 72 | 1008.7 |
| 20260503232630 | 52 | 224 | 2.0 | 16.0 | 0.00 | 0.00 | 0.00 | 70 | 1008.9 |
| 20260503232130 | 53 | 0 | 3.0 | 19.0 | 0.00 | 0.00 | 0.00 | 66 | 1008.9 |
| 20260503231631 | 53 | 0 | 2.0 | 19.0 | 0.00 | 0.00 | 0.00 | 62 | 1008.7 |
| 20260503231130 | 54 | 229 | 1.0 | 6.0 | 0.00 | 0.00 | 0.00 | 60 | 1008.6 |
| 20260503230630 | 54 | 221 | 1.0 | 13.0 | 0.00 | 0.00 | 0.00 | 57 | 1008.5 |
| 20260503230130 | 54 | 232 | 2.0 | 13.0 | 0.00 | 0.00 | 0.00 | 56 | 1008.4 |
| 20260503225631 | 55 | 235 | 2.0 | 12.0 | 0.00 | 0.00 | 0.00 | 54 | 1008.3 |
| 20260503225130 | 55 | 230 | 1.0 | 12.0 | 0.00 | 0.00 | 0.00 | 53 | 1008.3 |
| 20260503224630 | 55 | 211 | 1.0 | 16.0 | 0.00 | 0.00 | 0.00 | 53 | 1008.2 |
| 20260503224130 | 55 | 244 | 1.0 | 16.0 | 0.00 | 0.00 | 0.00 | 52 | 1008.2 |
| 20260503223630 | 55 | 225 | 2.0 | 19.0 | 0.00 | 0.00 | 0.00 | 51 | 1008.0 |
| 20260503223130 | 55 | 216 | 4.0 | 19.0 | 0.00 | 0.00 | 0.00 | 51 | 1008.1 |
| 20260503222630 | 55 | 229 | 6.0 | 24.0 | 0.00 | 0.00 | 0.00 | 50 | 1008.1 |
| 20260503222130 | 55 | 221 | 6.0 | 24.0 | 0.00 | 0.00 | 0.00 | 49 | 1008.0 |
| 20260503221631 | 56 | 233 | 4.0 | 18.0 | 0.00 | 0.00 | 0.00 | 48 | 1007.9 |
| 20260503221130 | 56 | 226 | 2.0 | 16.0 | 0.00 | 0.00 | 0.00 | 48 | 1008.1 |
| 20260503220631 | 56 | 256 | 3.0 | 14.0 | 0.00 | 0.00 | 0.00 | 47 | 1008.0 |
| 20260503220131 | 56 | 0 | 2.0 | 14.0 | 0.00 | 0.00 | 0.00 | 47 | 1008.0 |
| 20260503215631 | 56 | 215 | 1.0 | 8.0 | 0.00 | 0.00 | 0.00 | 46 | 1007.9 |
| 20260503215129 | 56 | 246 | 1.0 | 8.0 | 0.00 | 0.00 | 0.00 | 46 | 1007.8 |
| 20260503214631 | 56 | 250 | 2.0 | 15.0 | 0.00 | 0.00 | 0.00 | 46 | 1007.8 |
| 20260503214130 | 56 | 219 | 2.0 | 17.0 | 0.00 | 0.00 | 0.00 | 46 | 1007.7 |
| 20260503213631 | 56 | 233 | 1.0 | 14.0 | 0.00 | 0.00 | 0.00 | 47 | 1007.8 |
| 20260503213131 | 55 | 205 | 0.0 | 10.0 | 0.00 | 0.00 | 0.00 | 49 | 1007.9 |
| 20260503212630 | 56 | 194 | 2.0 | 14.0 | 0.00 | 0.00 | 0.00 | 50 | 1008.0 |
| 20260503212131 | 56 | 229 | 3.0 | 14.0 | 0.00 | 0.00 | 0.00 | 48 | 1008.5 |
| 20260503211630 | 56 | 247 | 3.0 | 18.0 | 0.00 | 0.00 | 0.00 | 46 | 1008.4 |
| 20260503211131 | 56 | 246 | 5.0 | 20.0 | 0.00 | 0.00 | 0.00 | 45 | 1008.4 |
| 20260503210630 | 56 | 215 | 4.0 | 19.0 | 0.00 | 0.00 | 0.00 | 45 | 1008.4 |
| 20260503210130 | 56 | 238 | 3.0 | 19.0 | 0.00 | 0.00 | 0.00 | 44 | 1008.2 |
| 20260503205630 | 56 | 235 | 2.0 | 19.0 | 0.00 | 0.00 | 0.00 | 45 | 1008.1 |
| 20260503205130 | 57 | 270 | 1.0 | 10.0 | 0.00 | 0.00 | 0.00 | 43 | 1008.2 |
| 20260503204631 | 57 | 234 | 2.0 | 19.0 | 0.00 | 0.00 | 0.00 | 43 | 1008.1 |
| 20260503204130 | 57 | 238 | 3.0 | 19.0 | 0.00 | 0.00 | 0.00 | 42 | 1008.1 |
| 20260503203631 | 57 | 263 | 3.0 | 16.0 | 0.00 | 0.00 | 0.00 | 42 | 1008.2 |
| 20260503203131 | 57 | 223 | 3.0 | 16.0 | 0.00 | 0.00 | 0.00 | 42 | 1008.2 |
| 20260503202631 | 57 | 233 | 2.0 | 14.0 | 0.00 | 0.00 | 0.00 | 41 | 1008.3 |
| 20260503202130 | 57 | 264 | 4.0 | 16.0 | 0.00 | 0.00 | 0.00 | 41 | 1008.4 |
| 20260503201631 | 57 | 252 | 4.0 | 16.0 | 0.00 | 0.00 | 0.00 | 39 | 1008.4 |
| 20260503201130 | 57 | 201 | 2.0 | 14.0 | 0.00 | 0.00 | 0.00 | 39 | 1008.5 |
| 20260503200630 | 58 | 226 | 3.0 | 20.0 | 0.00 | 0.00 | 0.00 | 40 | 1008.6 |
| 20260503200131 | 57 | 234 | 6.0 | 20.0 | 0.00 | 0.00 | 0.00 | 38 | 1008.7 |
| 20260503195631 | 58 | 238 | 5.0 | 16.0 | 0.00 | 0.00 | 0.00 | 38 | 1008.8 |
| 20260503195130 | 58 | 0 | 3.0 | 14.0 | 0.00 | 0.00 | 0.00 | 38 | 1008.8 |
| 20260503194631 | 58 | 221 | 3.0 | 20.0 | 0.00 | 0.00 | 0.00 | 39 | 1008.9 |
| 20260503185131 | 56 | 265 | 3.0 | 15.0 | 0.00 | 0.00 | 0.00 | 38 | 1010.0 |
| 20260503184630 | 56 | 243 | 3.0 | 16.0 | 0.00 | 0.00 | 0.00 | 38 | 1010.1 |
| 20260503184135 | 56 | 243 | 3.0 | 16.0 | 0.00 | 0.00 | 0.00 | 39 | 1010.1 |
| 20260503183630 | 57 | 0 | 2.0 | 13.0 | 0.00 | 0.00 | 0.00 | 39 | 1010.1 |
| 20260503183131 | 56 | 236 | 3.0 | 12.0 | 0.00 | 0.00 | 0.00 | 40 | 1010.2 |
| 20260503182631 | 56 | 0 | 2.0 | 12.0 | 0.00 | 0.00 | 0.00 | 40 | 1010.3 |
| 20260503182130 | 56 | 238 | 1.0 | 12.0 | 0.00 | 0.00 | 0.00 | 41 | 1010.3 |
| 20260503181631 | 55 | 225 | 1.0 | 13.0 | 0.00 | 0.00 | 0.00 | 41 | 1010.3 |
| 20260503181130 | 55 | 304 | 1.0 | 13.0 | 0.00 | 0.00 | 0.00 | 45 | 1010.4 |
| 20260503180631 | 54 | 261 | 0.0 | 4.0 | 0.00 | 0.00 | 0.00 | 48 | 1010.6 |
| 20260503180131 | 54 | 265 | 0.0 | 4.0 | 0.00 | 0.00 | 0.00 | 51 | 1010.5 |
| 20260503175630 | 54 | 269 | 0.0 | 0.0 | 0.00 | 0.00 | 0.00 | 51 | 1010.6 |
| 20260503175129 | 54 | 5 | 0.0 | 0.0 | 0.00 | 0.00 | 0.00 | 53 | 1010.6 |
| 20260503174631 | 54 | 5 | 0.0 | 0.0 | 0.00 | 0.00 | 0.00 | 53 | 1010.6 |
| 20260503174131 | 53 | 5 | 0.0 | 0.0 | 0.00 | 0.00 | 0.00 | 53 | 1010.7 |
| 20260503173632 | 53 | 5 | 0.0 | 0.0 | 0.00 | 0.00 | 0.00 | 54 | 1010.7 |
| 20260503173131 | 52 | 5 | 0.0 | 0.0 | 0.00 | 0.00 | 0.00 | 57 | 1010.8 |
| 20260503172632 | 52 | 5 | 0.0 | 0.0 | 0.00 | 0.00 | 0.00 | 58 | 1010.9 |
| 20260503172130 | 51 | 5 | 0.0 | 0.0 | 0.00 | 0.00 | 0.00 | 58 | 1010.9 |
| 20260503171632 | 51 | 10 | 0.0 | 0.0 | 0.00 | 0.00 | 0.00 | 58 | 1011.0 |
| 20260503171131 | 51 | 10 | 0.0 | 0.0 | 0.00 | 0.00 | 0.00 | 58 | 1011.2 |
| 20260503170131 | 51 | 10 | 0.0 | 0.0 | 0.00 | 0.00 | 0.00 | 59 | 1011.3 |
| 20260503150604 | 51 | 198 | 0.0 | 9.0 | 0.00 | 0.00 | 0.00 | 52 | 1012.0 |
| 20260503131103 | 46 | 243 | 0.0 | 7.0 | 0.00 | 0.00 | 0.00 | 58 | 1013.4 |
| 20260503130604 | 46 | 232 | 0.0 | 4.0 | 0.00 | 0.00 | 0.00 | 57 | 1013.4 |
| 20260503110532 | 38 | 229 | 0.0 | 0.0 | 0.00 | 0.00 | 0.00 | 76 | 1013.4 |
| 20260503090459 | 37 | 228 | 0.0 | 0.0 | 0.00 | 0.00 | 0.00 | 80 | 1012.9 |
| 20260503081449 | 38 | 228 | 0.0 | 0.0 | 0.00 | 0.00 | 0.00 | 78 | 1013.2 |
| 20260503080947 | 38 | 228 | 0.0 | 0.0 | 0.00 | 0.00 | 0.00 | 78 | 1013.1 |
| 20260503080458 | 38 | 228 | 0.0 | 0.0 | 0.00 | 0.00 | 0.00 | 78 | 1013.1 |
| 20260503072937 | 38 | 228 | 0.0 | 0.0 | 0.00 | 0.00 | 0.00 | 78 | 1013.1 |
| 20260503072437 | 38 | 228 | 0.0 | 0.0 | 0.00 | 0.00 | 0.00 | 79 | 1013.1 |
| 20260503071935 | 38 | 228 | 0.0 | 0.0 | 0.00 | 0.00 | 0.00 | 79 | 1013.1 |
| 20260503071435 | 38 | 229 | 0.0 | 0.0 | 0.00 | 0.00 | 0.00 | 79 | 1013.1 |
| 20260503070935 | 38 | 228 | 0.0 | 0.0 | 0.00 | 0.00 | 0.00 | 79 | 1013.1 |
| 20260503070435 | 38 | 229 | 0.0 | 0.0 | 0.00 | 0.00 | 0.00 | 79 | 1013.1 |
| 20260503054930 | 40 | 230 | 0.0 | 0.0 | 0.00 | 0.00 | 0.00 | 74 | 1013.4 |
| 20260503054445 | 40 | 229 | 0.0 | 0.0 | 0.00 | 0.00 | 0.00 | 73 | 1013.5 |
| 20260503053931 | 41 | 229 | 0.0 | 0.0 | 0.00 | 0.00 | 0.00 | 73 | 1013.4 |
| 20260503053430 | 41 | 230 | 0.0 | 0.0 | 0.00 | 0.00 | 0.00 | 73 | 1013.4 |
| 20260503052930 | 41 | 229 | 0.0 | 0.0 | 0.00 | 0.00 | 0.00 | 73 | 1013.5 |
| 20260503052430 | 41 | 229 | 0.0 | 0.0 | 0.00 | 0.00 | 0.00 | 73 | 1013.6 |
| 20260503051930 | 41 | 229 | 0.0 | 0.0 | 0.00 | 0.00 | 0.00 | 73 | 1013.6 |
| 20260503051431 | 41 | 229 | 0.0 | 0.0 | 0.00 | 0.00 | 0.00 | 72 | 1013.7 |
| 20260503050930 | 41 | 229 | 0.0 | 0.0 | 0.00 | 0.00 | 0.00 | 72 | 1013.7 |
| 20260503050431 | 42 | 229 | 0.0 | 0.0 | 0.00 | 0.00 | 0.00 | 71 | 1013.7 |
| 20260503045930 | 42 | 230 | 0.0 | 0.0 | 0.00 | 0.00 | 0.00 | 70 | 1013.7 |